This is the latest recevied weather packets stored in our database for station/object CE4JVU-10. If no packets are shown the sender has not sent any weather packets the latest 10 day(s).
| Time | Temp. | Humidity | Pressure | Rain* | Wind** | Luminosity | Snow |
|---|---|---|---|---|---|---|---|
| 1778255725 | 17.78° C | 61% | 985 hPa | - | - | - | - |
| 1778253925 | 17.22° C | 57% | 985.2 hPa | - | - | - | - |
| 1778252125 | 16.67° C | 59% | 985.7 hPa | - | - | - | - |
| 1778250326 | 16.67° C | 62% | 986.1 hPa | - | - | - | - |
| 1778248525 | 15° C | 56% | 986.1 hPa | - | - | - | - |
| 1778246725 | 15.56° C | 59% | 986.3 hPa | - | - | - | - |
| 1778244925 | 15° C | 60% | 986.4 hPa | - | - | - | - |
| 1778243125 | 14.44° C | 61% | 986.1 hPa | - | - | - | - |
| 1778241325 | 14.44° C | 62% | 986.1 hPa | - | - | - | - |
| 1778239525 | 15° C | 60% | 986.4 hPa | - | - | - | - |
| 1778237724 | 14.44° C | 60% | 986.5 hPa | - | - | - | - |
| 1778235924 | 14.44° C | 60% | 986.9 hPa | - | - | - | - |
| 1778234124 | 14.44° C | 60% | 987.2 hPa | - | - | - | - |
| 1778232324 | 15° C | 60% | 986.8 hPa | - | - | - | - |
| 1778230524 | 15° C | 59% | 986.6 hPa | - | - | - | - |
| 1778228724 | 15° C | 59% | 986.5 hPa | - | - | - | - |
| 1778226924 | 15° C | 59% | 986.6 hPa | - | - | - | - |
| 1778225124 | 15.56° C | 59% | 987 hPa | - | - | - | - |
| 1778223323 | 15.56° C | 59% | 987.2 hPa | - | - | - | - |
| 1778221523 | 16.11° C | 58% | 987.3 hPa | - | - | - | - |
| 1778219723 | 16.67° C | 57% | 987.3 hPa | - | - | - | - |
| 1778217923 | 17.22° C | 54% | 987.8 hPa | - | - | - | - |
| 1778216123 | 17.78° C | 54% | 987.8 hPa | - | - | - | - |
| 1778214324 | 17.78° C | 53% | 988.1 hPa | - | - | - | - |
| 1778212524 | 17.78° C | 53% | 988.2 hPa | - | - | - | - |
* Rain since midnight (hover to see other rain measurements)
** Current wind speed in m/s (hover to see current wind gust speed)